GTI840 KDOV-KCHS

Flight info

Callsign GTI840
Flight time N/A
Altitude 32000
Route TRPOD Q409 MRPIT AMYLU3
Aircraft B748/H-SDE3FGHIM1M2RWXY/LB1

Departure

Time 2026-04-22 21:19
Airport Dover Civil Air Terminal/Dover Air Force Base (KDOV)

Arrival

Time N/A
Airport Charleston International Airport (KCHS)
Time Latitude Longitude Altitude Speed Heading
2026-04-22 21:02 39.12815 -75.47267 36 ft 0 kts 36°
2026-04-22 21:10 39.12816 -75.47266 41 ft 1 kts 36°
2026-04-22 21:10 39.12826 -75.47256 49 ft 5 kts 36°
2026-04-22 21:10 39.12833 -75.47251 42 ft 6 kts 36°
2026-04-22 21:11 39.12879 -75.47229 42 ft 8 kts
2026-04-22 21:11 39.12903 -75.47242 42 ft 2 kts 315°
2026-04-22 21:11 39.12917 -75.47269 42 ft 7 kts 305°
2026-04-22 21:11 39.12965 -75.47355 43 ft 16 kts 305°
2026-04-22 21:12 39.13047 -75.47501 45 ft 24 kts 307°
2026-04-22 21:12 39.13164 -75.47705 44 ft 31 kts 306°
2026-04-22 21:12 39.13303 -75.47952 43 ft 37 kts 306°
2026-04-22 21:12 39.13461 -75.48235 42 ft 41 kts 306°
2026-04-22 21:13 39.13634 -75.48546 46 ft 43 kts 306°
2026-04-22 21:13 39.13749 -75.48733 48 ft 9 kts 330°
2026-04-22 21:13 39.13774 -75.48734 46 ft 4 kts 11°
2026-04-22 21:13 39.13808 -75.48708 47 ft 8 kts 36°
2026-04-22 21:14 39.13834 -75.48684 43 ft 0 kts 36°
2026-04-22 21:16 39.13852 -75.48667 45 ft 8 kts 36°
2026-04-22 21:16 39.13907 -75.48607 45 ft 6 kts 57°
2026-04-22 21:17 39.13910 -75.48579 43 ft 4 kts 87°
2026-04-22 21:17 39.13903 -75.48555 45 ft 2 kts 120°
2026-04-22 21:17 39.13898 -75.48548 46 ft 0 kts 126°
2026-04-22 21:18 39.13830 -75.48426 43 ft 51 kts 126°
2026-04-22 21:18 39.13475 -75.47796 42 ft 120 kts 126°
2026-04-22 21:18 39.12870 -75.46729 61 ft 171 kts 126°
2026-04-22 21:18 39.12136 -75.45438 612 ft 188 kts 126°
2026-04-22 21:19 39.11339 -75.44054 1326 ft 199 kts 128°
2026-04-22 21:19 39.10236 -75.42979 1979 ft 208 kts 163°
2026-04-22 21:19 39.08729 -75.42743 2400 ft 231 kts 182°
2026-04-22 21:19 39.07020 -75.42764 2873 ft 261 kts 184°
2026-04-22 21:20 39.05227 -75.42948 4114 ft 262 kts 192°
2026-04-22 21:20 39.03376 -75.43314 5218 ft 274 kts 193°
2026-04-22 21:20 39.01473 -75.43619 6630 ft 277 kts 191°
2026-04-22 21:20 38.99544 -75.43882 8226 ft 281 kts 191°
2026-04-22 21:21 38.97582 -75.44166 9754 ft 287 kts 192°
2026-04-22 21:21 38.95544 -75.44472 10853 ft 307 kts 191°
2026-04-22 21:21 38.93331 -75.44802 11616 ft 335 kts 191°
2026-04-22 21:21 38.90910 -75.45153 12380 ft 363 kts 191°
2026-04-22 21:22 38.88311 -75.45527 13099 ft 391 kts 190°
2026-04-22 21:22 38.85514 -75.45933 13763 ft 418 kts 190°
2026-04-22 21:22 38.82579 -75.46351 14825 ft 427 kts 190°
2026-04-22 21:22 38.79666 -75.46775 15905 ft 435 kts 190°
2026-04-22 21:23 38.76623 -75.47220 16979 ft 443 kts 190°
2026-04-22 21:23 38.73531 -75.47668 17996 ft 451 kts 190°
2026-04-22 21:23 38.70392 -75.48121 18911 ft 458 kts 190°
2026-04-22 21:23 38.67208 -75.48582 19793 ft 463 kts 190°
2026-04-22 21:24 38.64038 -75.49041 20606 ft 468 kts 191°
2026-04-22 21:24 38.60783 -75.49513 21395 ft 473 kts 191°
2026-04-22 21:24 38.57500 -75.49987 22154 ft 478 kts 191°
2026-04-22 21:24 38.54177 -75.50467 22874 ft 483 kts 191°
2026-04-22 21:25 38.50821 -75.50951 23555 ft 488 kts 191°
2026-04-22 21:25 38.47424 -75.51441 24102 ft 493 kts 191°
2026-04-22 21:25 38.44002 -75.51934 24613 ft 497 kts 191°
2026-04-22 21:25 38.40542 -75.52431 25113 ft 502 kts 191°
2026-04-22 21:26 38.37066 -75.53013 25594 ft 503 kts 196°
2026-04-22 21:26 38.33735 -75.54281 26048 ft 500 kts 207°
2026-04-22 21:26 38.30643 -75.56261 26504 ft 496 kts 217°
2026-04-22 21:26 38.27809 -75.58680 26921 ft 498 kts 219°
2026-04-22 21:27 38.24938 -75.61189 27340 ft 502 kts 219°
2026-04-22 21:27 38.22055 -75.63721 27860 ft 505 kts 219°
2026-04-22 21:27 38.19164 -75.66237 28341 ft 509 kts 219°
2026-04-22 21:27 38.16242 -75.68763 29086 ft 507 kts 219°
2026-04-22 21:28 38.13324 -75.71293 29786 ft 507 kts 219°
2026-04-22 21:28 38.10418 -75.73823 30409 ft 506 kts 219°
2026-04-22 21:28 38.07507 -75.76350 30931 ft 506 kts 219°
2026-04-22 21:28 38.04590 -75.78871 31440 ft 507 kts 219°
2026-04-22 21:29 38.01681 -75.81384 31934 ft 507 kts 219°
2026-04-22 21:29 37.98749 -75.83922 32035 ft 516 kts 219°
2026-04-22 21:29 37.92731 -75.89116 32041 ft 527 kts 219°
2026-04-22 21:30 37.86643 -75.94352 32038 ft 529 kts 219°
2026-04-22 21:30 37.80551 -75.99590 32052 ft 530 kts 219°
2026-04-22 21:31 37.74492 -76.04783 32046 ft 530 kts 219°
2026-04-22 21:31 37.68395 -76.10003 32041 ft 529 kts 219°
2026-04-22 21:32 37.62288 -76.15218 32042 ft 529 kts 219°
2026-04-22 21:32 37.56192 -76.20425 32056 ft 529 kts 219°
2026-04-22 21:33 37.50104 -76.25631 32060 ft 530 kts 219°
2026-04-22 21:33 37.44000 -76.30829 32059 ft 530 kts 219°
2026-04-22 21:34 37.37882 -76.36035 32055 ft 530 kts 219°
2026-04-22 21:34 37.31810 -76.41189 32054 ft 530 kts 219°
2026-04-22 21:35 37.25724 -76.46345 32050 ft 531 kts 219°
2026-04-22 21:35 37.19600 -76.51523 32046 ft 532 kts 219°
2026-04-22 21:36 37.13456 -76.56708 32038 ft 532 kts 219°
2026-04-22 21:36 37.07301 -76.61891 32036 ft 533 kts 218°
2026-04-22 21:37 37.01142 -76.67068 32043 ft 533 kts 218°
2026-04-22 21:37 36.94983 -76.72233 32046 ft 533 kts 218°
2026-04-22 21:38 36.88813 -76.77400 32047 ft 533 kts 218°
2026-04-22 21:38 36.82673 -76.82529 32040 ft 534 kts 218°
2026-04-22 21:39 36.76490 -76.87684 32041 ft 534 kts 218°
2026-04-22 21:39 36.70312 -76.92826 32049 ft 533 kts 218°
2026-04-22 21:40 36.64145 -76.97949 32042 ft 533 kts 218°